Regional Weather Roundup
Issued by NWS

Home | Current Version | Previous Version | Text Only | Print | Product List | Glossary Off
Versions: 1 2 3 4 5 6 7 8 9 10 11 12 13 14 15 16 17 18 19 20 21 22 23 24 25 26 27 28 29 30 31 32 33 34 35 36 37 38 39 40 41 42 43 44 45 46 47 48 49 50

000
ASUS43 KDTX 071101
RWRMI
MICHIGAN HOURLY REGIONAL WEATHER ROUNDUP
NATIONAL WEATHER SERVICE DETROIT/PONTIAC MI
600 AM EST WED DEC 07 2016

NOTE: "FAIR" INDICATES FEW OR NO CLOUDS BELOW 12,000 FEET WITH NO
SIGNIFICANT WEATHER AND/OR OBSTRUCTION TO VISIBILITY.

MIZ047>049-052>055-059>063-066>070-074>076-081>083-071200-
SOUTHEAST LOWER MICHIGAN

CITY           SKY/WX    TMP DP  RH WIND       PRES   REMARKS
ADRIAN         MOCLDY    30  23  75 W8        29.99S WCI  22
ALMA           CLOUDY    32  23  69 SW12G22   29.89S WCI  23
ANN ARBOR      CLOUDY    31  23  72 SW13G22   29.96R WCI  21
BAD AXE        CLOUDY    30  21  69 W15G23    29.87R WCI  19
CARO           CLOUDY    31  22  67 W15G26    29.88S WCI  21
DETROIT CITY   CLOUDY    32  23  69 W14G21    29.96R WCI  22
DETROIT        CLOUDY    32  22  66 W13       29.98R WCI  22
FLINT          CLOUDY    32  22  66 W13       29.92R WCI  22
GROSSE ILE     MOCLDY    32  25  77 SW7       29.97S WCI  25
HILLSDALE      CLOUDY    28  23  80 W8        29.95R WCI  20
HOWELL         CLOUDY    32  22  69 W9G18     29.92S WCI  24

CITY           SKY/WX    TMP DP  RH WIND       PRES   REMARKS
JACKSON        CLOUDY    30  20  66 W16G29    29.95S WCI  19
LAMBERTVILLE   PTCLDY    31  24  75 SW6       30.00S WCI  25
LANSING        CLOUDY    32  21  64 SW16      29.92S WCI  21
LAPEER         NOT AVBL
MASON          CLOUDY    32  24  72 W9G17     29.93S WCI  24
MONROE         CLOUDY    32  25  74 W9        29.99R WCI  24
MT. CLEMENS    MOCLDY    32  23  69 SW8       29.93R WCI  24
PONTIAC        CLOUDY    31  22  69 W12G18    29.92R WCI  22
PORT HOPE        N/A     32  22  66 W8        29.83S WCI  25
PORT HURON     PTCLDY    30  23  74 SW5       29.94R WCI  25
TRI CITIES     CLOUDY    32  23  69 SW17      29.89R WCI  21
MIDLAND        CLOUDY    32  20  60 W10G17    29.87S WCI  24
TROY           CLOUDY    33  24  69 SW5       29.96R WCI  28
SAGINAW HB     CLOUDY    32  23  69 SW13G20   29.89R WCI  22
$$
MIZ043>046-050>051-056>058-064>065-071>073-077>080-071200-
SOUTHWEST LOWER MICHIGAN

CITY           SKY/WX    TMP DP  RH WIND       PRES   REMARKS
BATTLE CREEK   CLOUDY    30  22  72 W15G24    29.95S WCI  19
BENTON HARBOR  PTCLDY    32  22  66 W20       29.99S WCI  20
BIG RAPIDS     CLOUDY    31  21  67 W13       29.85S WCI  21
COLDWATER      CLOUDY    27  22  82 SW9       29.97R WCI  18
FREMONT        CLOUDY    30  19  62 W14G22    29.90R WCI  20
HOLLAND        CLOUDY    32  23  69 W20G30    29.95R WCI  20
GRAND RAPIDS   CLOUDY    32  22  66 W25       29.92S WCI  19
IONIA          CLOUDY    31  24  74 W13       29.90S WCI  21
KALAMAZOO      CLOUDY    31  21  66 W14G23    29.97R WCI  21
LUDINGTON      CLOUDY    30  22  71 W12G22    29.88R WCI  20
MARSHALL       CLOUDY    30  21  70 W13G22    29.95R WCI  20
MOUNT PLEASANT CLOUDY    31  21  67 W9G17     29.86S WCI  23
MUSKEGON       CLOUDY    31  23  72 W15G22    29.94R WCI  20
SOUTH HAVEN    MOCLDY    32  24  71 W14G21    29.97S WCI  22
$$
MIZ016>042-071200-
NORTHERN LOWER MICHIGAN

CITY           SKY/WX    TMP DP  RH WIND       PRES   REMARKS
ALPENA         CLOUDY    31  19  61 W8G17     29.78S WCI  23
BEAVER ISLAND  CLOUDY    30  22  72 SW18G29   29.72F WCI  18
BELLAIRE       CLOUDY    31  21  67 SW7G16    29.79S WCI  24
CADILLAC       CLOUDY    27  19  72 SW14G26   29.80R WCI  16
CHARLEVOIX     CLOUDY    31  22  68 SW18G28   29.77F WCI  20
FRANKFORT      CLOUDY    31  23  72 W15G25    29.83R WCI  20
GAYLORD        CLOUDY    28  18  66 SW17G26   29.73F WCI  16
GRAYLING       CLOUDY    29  21  73 SW9G18    29.78S WCI  20
HARBOR SPRINGS CLOUDY    32  24  72 SW16G28   29.73F WCI  21
HOUGHTON LAKE  CLOUDY    28  20  71 W15G23    29.81R WCI  16
MANISTEE       CLOUDY    30  21  69 W15G24    29.85R WCI  19
OSCODA         CLOUDY    31  20  62 MISG      29.82R
PELLSTON       CLOUDY    32  20  61 SW15G24   29.72F WCI  22
ROGERS CITY    CLOUDY    32  22  66 SW12      29.76S WCI  23
TRAVERSE CITY  CLOUDY    31  20  63 SW8       29.79R WCI  23
$$
MIZ007>008-015-071200-
EASTERN UPPER MICHIGAN

CITY           SKY/WX    TMP DP  RH WIND       PRES   REMARKS
MACKINAC ISLAN CLOUDY    31  23  71 W14G38    29.70S WCI  21
NEWBERRY       CLOUDY    26  18  70 W12G17    29.69R WCI  16
MUNISING         N/A     27  14  58 VRB7G20   29.69R WCI  19
$$
MIZ004>006-011>014-085-071200-
CENTRAL UPPER MICHIGAN

CITY           SKY/WX    TMP DP  RH WIND       PRES   REMARKS
MANISTIQUE     CLOUDY    27  16  62 W9        29.71S WCI  18
SAWYER-GWINN   CLOUDY    22  14  71 SW13      29.66S WCI  10
$$
MIZ001>003-009>011-084-071200-
WESTERN UPPER MICHIGAN

CITY           SKY/WX    TMP DP  RH WIND       PRES   REMARKS
COPPER HARBOR    N/A     25  16  68 W14G25    29.58S WCI  13
$$

ABBREVIATIONS USED IN REMARKS
   TC - TEMPERATURE IN CELSIUS
  WCI - WIND CHILL INDEX
   HX - HEAT INDEX
  VSB - VISIBILITY




USA.gov is the U.S. government's official web portal to all federal, state and local government web resources and services.